Zurück zum Katalog

TITAN 3C TRANSTAGE DEB

AktivMEO
NORAD 38693·DEBRIS·🇺🇸 United States

Gestartet Sep 26, 1968 von Cape Canaveral Space Force Station

Loading…

Nächste Überflüge (nächste 24 Stunden)

TLE

AktuellSource: Space-Track

Epoche: Sep 13, 2026, 16:02 UTC

1 38693U 68081T   26256.66809843 -.00000040  00000-0  00000-0 0  9992
2 38693   3.2338  64.2839 0116291 206.9051 152.8917  1.02822440 49532

Verfolge TITAN 3C TRANSTAGE DEB in Echtzeit mit AllMySat

Download on the App Store